map of ELQ home
ELQ - Airport
Location
City:  Gassim, Saudi Arabia
Near (Alt.):Buraidah
Name:Prince Nayef bin Abdulaziz Airport
ICAO:OEGS
IATA:ELQ

Details
Type:Airport (Aerodrome, Airfield)
Use:Public/Civil, International (customs port of entry)
Latitude:2618'10"N (26.302778)
Longitude:4346'27"E (43.774167)
Elevation:2126 ft (648 m)
Variation:3.61E (WMM2015 magnetic declination)
0.06 annual change
Runways:1
Longest:9843 × 148 ft (3000 × 45 m), paved

Time
Time Zone:UTC+3
Local Time:

Weather
METAR:OEGS 122100Z 08012KT 7000 DU BKN030 19/19 Q1019
TAF:OEGS 112300Z 1200/1306 07005G15KT 7000 SCT040 SCT100
TEMPO 1200/1206 VRB03KT 2000 BR PROB30
TEMPO 1201/1204 0800 FG
TEMPO 1206/1212 4000 TSRA FEW035CB BKN040

Related Locations
Nearby:
Farthest:GMR: 12195 mi / 19625 km
Mangareva [Totegegie], Gambier Islands, PF

Find:

   beyond  
but within

Other Information
Maps:
NOTAMs:
Links:
Sources:

  
  • flag of Saudi Arabia
  

Sectional Chart

Flight Planning
at skyvector.com

Satellite Image

Google Maps Satellite view

 

Copyright © 2004-2018 Karl L. Swartz. All rights reserved.
The Great Circle Mapper name and logo are trademarks of the Great Circle Mapper.
All other trademarks mentioned herein belong to their respective owners.
Please see credits for attibutions and further copyright information.

  Follow gcmap on Facebook Follow gcmap on Twitter Follow gcmap on Google+ GCmap on LinkedIn

hCard Microformat

Geo Microformat